Time,TemperatureF,DewpointF,PressureIn,WindDirection,WindDirectionDegrees,WindSpeedMPH,WindSpeedGustMPH,Humidity,HourlyPrecipIn,Conditions,Clouds,dailyrainin,SoftwareType,DateUTC
2013-07-14 00:01:00,75.8,67.7,30.21,East,94,0.0,0.0,76,0.00,,---,0.00,VWS V13.01,2013-07-14 04:01:00,
2013-07-14 00:06:00,75.7,67.6,30.21,NE,51,1.0,2.0,76,0.00,,---,0.00,VWS V13.01,2013-07-14 04:06:00,
2013-07-14 00:11:00,75.7,67.6,30.21,ESE,117,0.0,7.0,76,0.00,,---,0.00,VWS V13.01,2013-07-14 04:11:00,
2013-07-14 00:16:00,75.7,67.6,30.21,SW,235,1.0,7.0,76,0.00,,---,0.00,VWS V13.01,2013-07-14 04:16:00,
2013-07-14 00:21:00,75.7,67.6,30.21,SSW,209,1.0,7.0,76,0.00,,---,0.00,VWS V13.01,2013-07-14 04:21:00,
2013-07-14 00:26:00,75.7,67.6,30.21,SE,130,3.0,7.0,76,0.00,,---,0.00,VWS V13.01,2013-07-14 04:26:00,
2013-07-14 00:31:00,75.7,67.6,30.21,SE,144,0.0,7.0,76,0.00,,---,0.00,VWS V13.01,2013-07-14 04:31:00,
2013-07-14 00:36:00,75.7,67.6,30.21,SE,126,1.0,7.0,76,0.00,,---,0.00,VWS V13.01,2013-07-14 04:36:00,
2013-07-14 00:41:00,75.7,68.0,30.20,ESE,103,0.0,7.0,77,0.00,,---,0.00,VWS V13.01,2013-07-14 04:41:00,
2013-07-14 00:46:00,75.7,68.0,30.20,SE,132,4.0,7.0,77,0.00,,---,0.00,VWS V13.01,2013-07-14 04:46:00,
2013-07-14 00:51:00,75.7,68.0,30.20,SSE,159,0.0,7.0,77,0.00,,---,0.00,VWS V13.01,2013-07-14 04:51:00,
2013-07-14 00:56:00,75.8,68.1,30.20,SSE,153,1.0,7.0,77,0.00,,---,0.00,VWS V13.01,2013-07-14 04:56:00,
2013-07-14 01:01:00,75.7,68.0,30.20,SE,142,1.0,9.0,77,0.00,,---,0.00,VWS V13.01,2013-07-14 05:01:00,
2013-07-14 01:06:00,75.7,68.0,30.20,ESE,123,1.0,9.0,77,0.00,,---,0.00,VWS V13.01,2013-07-14 05:06:00,
2013-07-14 01:11:00,75.6,67.9,30.20,SW,234,2.0,9.0,77,0.00,,---,0.00,VWS V13.01,2013-07-14 05:11:00,
2013-07-14 01:16:00,75.7,68.0,30.20,SSW,198,0.0,10.0,77,0.00,,---,0.00,VWS V13.01,2013-07-14 05:16:00,
2013-07-14 01:21:00,75.8,68.1,30.20,South,171,4.0,10.0,77,0.00,,---,0.00,VWS V13.01,2013-07-14 05:21:00,
2013-07-14 01:26:00,75.9,68.2,30.19,South,188,3.0,10.0,77,0.00,,---,0.00,VWS V13.01,2013-07-14 05:26:00,
2013-07-14 01:31:00,75.9,68.2,30.19,SSE,153,6.0,6.0,77,0.00,,---,0.00,VWS V13.01,2013-07-14 05:31:00,
2013-07-14 01:36:00,75.9,68.2,30.19,SSE,150,2.0,11.0,77,0.00,,---,0.00,VWS V13.01,2013-07-14 05:36:00,
2013-07-14 01:41:00,75.9,68.2,30.19,South,181,1.0,11.0,77,0.00,,---,0.00,VWS V13.01,2013-07-14 05:41:00,
2013-07-14 01:46:00,75.8,68.1,30.19,South,186,0.0,11.0,77,0.00,,---,0.00,VWS V13.01,2013-07-14 05:46:00,
2013-07-14 01:51:00,75.8,68.1,30.19,South,187,2.0,11.0,77,0.00,,---,0.00,VWS V13.01,2013-07-14 05:51:00,
2013-07-14 01:56:00,75.7,68.0,30.19,West,275,3.0,11.0,77,0.00,,---,0.00,VWS V13.01,2013-07-14 05:56:00,
2013-07-14 02:01:00,75.6,68.3,30.20,SW,230,1.0,4.0,78,0.00,,---,0.00,VWS V13.01,2013-07-14 06:01:00,
2013-07-14 02:06:00,75.4,68.1,30.20,West,264,7.0,7.0,78,0.00,,---,0.00,VWS V13.01,2013-07-14 06:06:00,
2013-07-14 02:11:00,75.3,68.0,30.20,SW,217,3.0,9.0,78,0.00,,---,0.00,VWS V13.01,2013-07-14 06:11:00,
2013-07-14 02:16:00,75.3,68.0,30.20,SE,124,3.0,9.0,78,0.00,,---,0.00,VWS V13.01,2013-07-14 06:16:00,
2013-07-14 02:21:00,75.3,68.3,30.20,SE,144,3.0,9.0,79,0.00,,---,0.00,VWS V13.01,2013-07-14 06:21:00,
2013-07-14 02:26:00,75.2,67.9,30.20,SSE,157,3.0,9.0,78,0.00,,---,0.00,VWS V13.01,2013-07-14 06:26:00,
2013-07-14 02:31:00,75.2,67.9,30.19,SSE,147,0.0,4.0,78,0.00,,---,0.00,VWS V13.01,2013-07-14 06:31:00,
2013-07-14 02:36:00,75.0,68.1,30.20,SSE,165,0.0,4.0,79,0.00,,---,0.00,VWS V13.01,2013-07-14 06:36:00,
2013-07-14 02:41:00,74.9,67.9,30.20,South,183,0.0,4.0,79,0.00,,---,0.00,VWS V13.01,2013-07-14 06:41:00,
2013-07-14 02:46:00,74.7,68.1,30.20,SSW,205,1.0,4.0,80,0.00,,---,0.00,VWS V13.01,2013-07-14 06:46:00,
2013-07-14 02:51:00,74.6,68.0,30.20,SSW,201,2.0,10.0,80,0.00,,---,0.00,VWS V13.01,2013-07-14 06:51:00,
2013-07-14 02:56:00,74.7,68.1,30.20,SSW,196,4.0,10.0,80,0.00,,---,0.00,VWS V13.01,2013-07-14 06:56:00,
2013-07-14 03:01:00,74.7,68.1,30.20,ESE,106,1.0,6.0,80,0.00,,---,0.00,VWS V13.01,2013-07-14 07:01:00,
2013-07-14 03:06:00,74.7,68.1,30.20,ESE,121,3.0,6.0,80,0.00,,---,0.00,VWS V13.01,2013-07-14 07:06:00,
2013-07-14 03:11:00,74.7,68.1,30.20,SE,140,0.0,6.0,80,0.00,,---,0.00,VWS V13.01,2013-07-14 07:11:00,
2013-07-14 03:16:00,74.6,68.0,30.20,East,98,6.0,7.0,80,0.00,,---,0.00,VWS V13.01,2013-07-14 07:16:00,
2013-07-14 03:21:00,74.6,68.0,30.20,SSW,192,1.0,7.0,80,0.00,,---,0.00,VWS V13.01,2013-07-14 07:21:00,
2013-07-14 03:26:00,74.6,68.0,30.20,SSW,211,2.0,7.0,80,0.00,,---,0.00,VWS V13.01,2013-07-14 07:26:00,
2013-07-14 03:31:00,74.6,68.4,30.20,SSW,211,0.0,1.0,81,0.00,,---,0.00,VWS V13.01,2013-07-14 07:31:00,
2013-07-14 03:36:00,74.5,68.3,30.20,ESE,123,0.0,3.0,81,0.00,,---,0.00,VWS V13.01,2013-07-14 07:36:00,
2013-07-14 03:41:00,74.3,68.1,30.20,South,180,5.0,6.0,81,0.00,,---,0.00,VWS V13.01,2013-07-14 07:41:00,
2013-07-14 03:46:00,74.2,68.0,30.20,SSE,161,4.0,8.0,81,0.00,,---,0.00,VWS V13.01,2013-07-14 07:46:00,
2013-07-14 03:51:00,74.2,68.0,30.20,South,173,0.0,9.0,81,0.00,,---,0.00,VWS V13.01,2013-07-14 07:51:00,
2013-07-14 03:56:00,74.3,68.1,30.20,SSE,149,1.0,9.0,81,0.00,,---,0.00,VWS V13.01,2013-07-14 07:56:00,
2013-07-14 04:01:00,74.3,68.1,30.20,WSW,244,1.0,2.0,81,0.00,,---,0.00,VWS V13.01,2013-07-14 08:01:00,
2013-07-14 04:06:00,74.3,68.1,30.20,South,173,1.0,5.0,81,0.00,,---,0.00,VWS V13.01,2013-07-14 08:06:00,
2013-07-14 04:11:00,74.3,68.1,30.20,SW,225,2.0,5.0,81,0.00,,---,0.00,VWS V13.01,2013-07-14 08:11:00,
2013-07-14 04:16:00,74.2,68.0,30.20,South,172,0.0,5.0,81,0.00,,---,0.00,VWS V13.01,2013-07-14 08:16:00,
2013-07-14 04:21:00,74.2,68.0,30.20,WSW,238,0.0,8.0,81,0.00,,---,0.00,VWS V13.01,2013-07-14 08:21:00,
2013-07-14 04:26:00,74.3,68.1,30.20,South,182,0.0,8.0,81,0.00,,---,0.00,VWS V13.01,2013-07-14 08:26:00,
2013-07-14 04:31:00,74.4,68.2,30.20,East,94,0.0,1.0,81,0.00,,---,0.00,VWS V13.01,2013-07-14 08:31:00,
2013-07-14 04:36:00,74.4,68.2,30.20,ESE,107,1.0,3.0,81,0.00,,---,0.00,VWS V13.01,2013-07-14 08:36:00,
2013-07-14 04:41:00,74.4,68.2,30.20,ESE,109,4.0,8.0,81,0.00,,---,0.00,VWS V13.01,2013-07-14 08:41:00,
2013-07-14 04:46:00,74.5,68.3,30.20,ESE,113,0.0,8.0,81,0.00,,---,0.00,VWS V13.01,2013-07-14 08:46:00,
2013-07-14 04:51:00,74.5,68.3,30.20,SE,131,2.0,8.0,81,0.00,,---,0.00,VWS V13.01,2013-07-14 08:51:00,
2013-07-14 04:56:00,74.4,68.2,30.20,South,174,1.0,8.0,81,0.00,,---,0.00,VWS V13.01,2013-07-14 08:56:00,
2013-07-14 05:01:00,74.4,68.2,30.20,SE,128,1.0,6.0,81,0.00,,---,0.00,VWS V13.01,2013-07-14 09:01:00,
2013-07-14 05:06:00,74.3,68.4,30.20,East,90,3.0,9.0,82,0.00,,---,0.00,VWS V13.01,2013-07-14 09:06:00,
2013-07-14 05:11:00,74.2,68.4,30.20,SSE,151,3.0,11.0,82,0.00,,---,0.00,VWS V13.01,2013-07-14 09:11:00,
2013-07-14 05:16:00,74.2,68.4,30.20,SSE,163,2.0,11.0,82,0.00,,---,0.00,VWS V13.01,2013-07-14 09:16:00,
2013-07-14 05:21:00,74.1,68.3,30.20,SE,141,6.0,11.0,82,0.00,,---,0.00,VWS V13.01,2013-07-14 09:21:00,
2013-07-14 05:26:00,74.2,68.4,30.20,South,177,2.0,13.0,82,0.00,,---,0.00,VWS V13.01,2013-07-14 09:26:00,
2013-07-14 05:31:00,74.4,68.2,30.20,South,175,3.0,4.0,81,0.00,,---,0.00,VWS V13.01,2013-07-14 09:31:00,
2013-07-14 05:36:00,74.4,68.2,30.20,SSE,151,3.0,7.0,81,0.00,,---,0.00,VWS V13.01,2013-07-14 09:36:00,
2013-07-14 05:41:00,74.3,68.4,30.20,South,183,2.0,9.0,82,0.00,,---,0.00,VWS V13.01,2013-07-14 09:41:00,
2013-07-14 05:46:00,74.2,68.4,30.20,SW,214,5.0,10.0,82,0.00,,---,0.00,VWS V13.01,2013-07-14 09:46:00,
2013-07-14 05:51:00,74.1,68.3,30.20,SSE,161,4.0,11.0,82,0.00,,---,0.00,VWS V13.01,2013-07-14 09:51:00,
2013-07-14 05:56:00,74.0,68.2,30.21,SSW,198,14.0,15.0,82,0.00,,---,0.00,VWS V13.01,2013-07-14 09:56:00,
2013-07-14 06:01:00,74.2,68.0,30.20,SSE,163,2.0,6.0,81,0.00,,---,0.00,VWS V13.01,2013-07-14 10:01:00,
2013-07-14 06:06:00,74.1,67.9,30.21,SSE,147,2.0,12.0,81,0.00,,---,0.00,VWS V13.01,2013-07-14 10:06:00,
2013-07-14 06:11:00,74.1,67.9,30.22,SSW,195,3.0,12.0,81,0.00,,---,0.00,VWS V13.01,2013-07-14 10:11:00,
2013-07-14 06:16:00,74.1,67.9,30.22,SW,214,0.0,12.0,81,0.00,,---,0.00,VWS V13.01,2013-07-14 10:16:00,
2013-07-14 06:21:00,74.1,67.9,30.22,SSE,158,2.0,12.0,81,0.00,,---,0.00,VWS V13.01,2013-07-14 10:21:00,
2013-07-14 06:26:00,74.0,67.8,30.22,SSE,168,1.0,12.0,81,0.00,,---,0.00,VWS V13.01,2013-07-14 10:26:00,
2013-07-14 06:31:00,74.0,67.8,30.22,South,186,2.0,3.0,81,0.00,,---,0.00,VWS V13.01,2013-07-14 10:31:00,
2013-07-14 06:36:00,73.9,67.7,30.22,ESE,103,1.0,5.0,81,0.00,,---,0.00,VWS V13.01,2013-07-14 10:36:00,
2013-07-14 06:41:00,74.0,67.8,30.23,SSW,201,0.0,5.0,81,0.00,,---,0.00,VWS V13.01,2013-07-14 10:41:00,
2013-07-14 06:46:00,74.0,67.8,30.23,SE,137,4.0,5.0,81,0.00,,---,0.00,VWS V13.01,2013-07-14 10:46:00,
2013-07-14 06:51:00,74.2,67.6,30.23,SE,135,0.0,7.0,80,0.00,,---,0.00,VWS V13.01,2013-07-14 10:51:00,
2013-07-14 06:56:00,74.2,67.3,30.23,South,180,3.0,7.0,79,0.00,,---,0.00,VWS V13.01,2013-07-14 10:56:00,
2013-07-14 07:01:00,74.4,67.5,30.23,SSW,194,3.0,8.0,79,0.00,,---,0.00,VWS V13.01,2013-07-14 11:01:00,
2013-07-14 07:06:00,74.7,67.8,30.24,SW,233,0.0,8.0,79,0.00,,---,0.00,VWS V13.01,2013-07-14 11:06:00,
2013-07-14 07:11:00,75.1,68.2,30.24,South,182,1.0,8.0,79,0.00,,---,0.00,VWS V13.01,2013-07-14 11:11:00,
2013-07-14 07:16:00,75.5,67.8,30.24,SE,142,0.0,8.0,77,0.00,,---,0.00,VWS V13.01,2013-07-14 11:16:00,
2013-07-14 07:21:00,75.9,67.4,30.24,SSW,194,2.0,8.0,75,0.00,,---,0.00,VWS V13.01,2013-07-14 11:21:00,
2013-07-14 07:26:00,76.1,67.6,30.24,NW,324,1.0,8.0,75,0.00,,---,0.00,VWS V13.01,2013-07-14 11:26:00,
2013-07-14 07:31:00,76.4,67.5,30.24,South,171,2.0,4.0,74,0.00,,---,0.00,VWS V13.01,2013-07-14 11:31:00,
2013-07-14 07:36:00,76.8,67.9,30.25,SSW,203,3.0,5.0,74,0.00,,---,0.00,VWS V13.01,2013-07-14 11:36:00,
2013-07-14 07:41:00,77.0,68.5,30.24,WSW,248,1.0,5.0,75,0.00,,---,0.00,VWS V13.01,2013-07-14 11:41:00,
2013-07-14 07:46:00,77.3,68.8,30.25,WSW,248,0.0,5.0,75,0.00,,---,0.00,VWS V13.01,2013-07-14 11:46:00,
2013-07-14 07:51:00,77.8,68.1,30.25,SW,229,2.0,5.0,72,0.00,,---,0.00,VWS V13.01,2013-07-14 11:51:00,
2013-07-14 07:56:00,78.3,68.1,30.25,South,189,2.0,5.0,71,0.00,,---,0.00,VWS V13.01,2013-07-14 11:56:00,
2013-07-14 08:01:00,78.4,68.2,30.25,SW,234,5.0,5.0,71,0.00,,---,0.00,VWS V13.01,2013-07-14 12:01:00,
2013-07-14 08:06:00,78.3,68.1,30.25,South,174,2.0,7.0,71,0.00,,---,0.00,VWS V13.01,2013-07-14 12:06:00,
2013-07-14 08:11:00,78.6,68.0,30.26,SSE,148,1.0,7.0,70,0.00,,---,0.00,VWS V13.01,2013-07-14 12:11:00,
2013-07-14 08:16:00,78.9,68.3,30.26,SSW,209,0.0,7.0,70,0.00,,---,0.00,VWS V13.01,2013-07-14 12:16:00,
2013-07-14 08:21:00,79.1,68.1,30.26,SSW,205,3.0,7.0,69,0.00,,---,0.00,VWS V13.01,2013-07-14 12:21:00,
2013-07-14 08:26:00,79.2,67.7,30.26,SE,144,2.0,7.0,68,0.00,,---,0.00,VWS V13.01,2013-07-14 12:26:00,
2013-07-14 08:31:00,79.0,68.0,30.26,SSW,192,2.0,6.0,69,0.00,,---,0.00,VWS V13.01,2013-07-14 12:31:00,
2013-07-14 08:36:00,79.1,68.5,30.26,SSW,209,1.0,6.0,70,0.00,,---,0.00,VWS V13.01,2013-07-14 12:36:00,
2013-07-14 08:41:00,79.4,68.8,30.26,SW,219,1.0,6.0,70,0.00,,---,0.00,VWS V13.01,2013-07-14 12:41:00,
2013-07-14 08:46:00,79.7,69.1,30.26,SSW,203,5.0,7.0,70,0.00,,---,0.00,VWS V13.01,2013-07-14 12:46:00,
2013-07-14 08:51:00,79.8,68.7,30.26,SW,229,3.0,8.0,69,0.00,,---,0.00,VWS V13.01,2013-07-14 12:51:00,
2013-07-14 08:56:00,79.9,68.4,30.26,South,186,6.0,9.0,68,0.00,,---,0.00,VWS V13.01,2013-07-14 12:56:00,
2013-07-14 09:01:00,79.6,68.1,30.26,SSE,166,2.0,11.0,68,0.00,,---,0.00,VWS V13.01,2013-07-14 13:01:00,
2013-07-14 09:06:00,79.6,68.1,30.26,South,187,7.0,11.0,68,0.00,,---,0.00,VWS V13.01,2013-07-14 13:06:00,
2013-07-14 09:11:00,79.7,68.6,30.26,SSW,193,4.0,11.0,69,0.00,,---,0.00,VWS V13.01,2013-07-14 13:11:00,
2013-07-14 09:16:00,79.7,68.2,30.26,SSE,157,5.0,11.0,68,0.00,,---,0.00,VWS V13.01,2013-07-14 13:16:00,
2013-07-14 09:21:00,79.9,68.0,30.26,South,191,3.0,11.0,67,0.00,,---,0.00,VWS V13.01,2013-07-14 13:21:00,
2013-07-14 09:26:00,80.2,68.7,30.27,SSW,212,2.0,11.0,68,0.00,,---,0.00,VWS V13.01,2013-07-14 13:26:00,
2013-07-14 09:31:00,80.5,68.1,30.27,SSW,201,6.0,8.0,66,0.00,,---,0.00,VWS V13.01,2013-07-14 13:31:00,
2013-07-14 09:36:00,80.7,68.7,30.27,SW,214,3.0,8.0,67,0.00,,---,0.00,VWS V13.01,2013-07-14 13:36:00,
2013-07-14 09:41:00,80.8,69.3,30.27,SSW,197,6.0,8.0,68,0.00,,---,0.00,VWS V13.01,2013-07-14 13:41:00,
2013-07-14 09:46:00,80.9,68.5,30.27,SE,131,3.0,9.0,66,0.00,,---,0.00,VWS V13.01,2013-07-14 13:46:00,
2013-07-14 09:51:00,81.1,69.1,30.26,South,188,4.0,9.0,67,0.00,,---,0.00,VWS V13.01,2013-07-14 13:51:00,
2013-07-14 09:56:00,81.3,68.9,30.27,SW,223,7.0,9.0,66,0.00,,---,0.00,VWS V13.01,2013-07-14 13:56:00,
2013-07-14 10:01:00,81.4,69.0,30.26,SSW,194,3.0,7.0,66,0.00,,---,0.00,VWS V13.01,2013-07-14 14:01:00,
2013-07-14 10:06:00,81.5,69.1,30.26,South,177,4.0,8.0,66,0.00,,---,0.00,VWS V13.01,2013-07-14 14:06:00,
2013-07-14 10:11:00,81.6,69.2,30.26,SSW,202,7.0,9.0,66,0.00,,---,0.00,VWS V13.01,2013-07-14 14:11:00,
2013-07-14 10:16:00,81.7,68.8,30.26,SSW,212,3.0,9.0,65,0.00,,---,0.00,VWS V13.01,2013-07-14 14:16:00,
2013-07-14 10:21:00,82.0,68.2,30.26,SSW,194,7.0,9.0,63,0.00,,---,0.00,VWS V13.01,2013-07-14 14:21:00,
2013-07-14 10:26:00,82.1,68.7,30.26,SSW,204,6.0,13.0,64,0.00,,---,0.00,VWS V13.01,2013-07-14 14:26:00,
2013-07-14 10:31:00,82.3,68.5,30.26,SSW,211,8.0,10.0,63,0.00,,---,0.00,VWS V13.01,2013-07-14 14:31:00,
2013-07-14 10:36:00,82.5,68.2,30.26,SSW,201,7.0,10.0,62,0.00,,---,0.00,VWS V13.01,2013-07-14 14:36:00,
2013-07-14 10:41:00,82.6,68.3,30.26,SSW,196,7.0,13.0,62,0.00,,---,0.00,VWS V13.01,2013-07-14 14:41:00,
2013-07-14 10:46:00,82.6,68.7,30.26,SW,217,5.0,13.0,63,0.00,,---,0.00,VWS V13.01,2013-07-14 14:46:00,
2013-07-14 10:51:00,82.6,68.7,30.26,South,189,3.0,13.0,63,0.00,,---,0.00,VWS V13.01,2013-07-14 14:51:00,
2013-07-14 10:56:00,82.8,68.5,30.26,SSE,161,3.0,13.0,62,0.00,,---,0.00,VWS V13.01,2013-07-14 14:56:00,
2013-07-14 10:57:00,82.8,68.5,30.26,SSE,160,3.0,13.0,62,0.00,,---,0.00,VWS V13.01,2013-07-14 14:57:00,
2013-07-14 11:02:00,83.2,69.8,30.26,SSW,198,5.0,8.0,64,0.00,,---,0.00,VWS V13.01,2013-07-14 15:02:00,
2013-07-14 11:07:00,83.3,68.0,30.26,SSW,197,11.0,11.0,60,0.00,,---,0.00,VWS V13.01,2013-07-14 15:07:00,
2013-07-14 11:12:00,83.2,67.9,30.25,SE,146,3.0,11.0,60,0.00,,---,0.00,VWS V13.01,2013-07-14 15:12:00,
2013-07-14 11:17:00,83.4,68.1,30.25,South,172,3.0,11.0,60,0.00,,---,0.00,VWS V13.01,2013-07-14 15:17:00,
2013-07-14 11:22:00,83.6,68.3,30.25,SSW,195,7.0,11.0,60,0.00,,---,0.00,VWS V13.01,2013-07-14 15:22:00,
2013-07-14 11:27:00,83.8,69.4,30.25,SSW,211,6.0,11.0,62,0.00,,---,0.00,VWS V13.01,2013-07-14 15:27:00,
2013-07-14 11:32:00,84.3,68.9,30.25,SSW,211,4.0,5.0,60,0.00,,---,0.00,VWS V13.01,2013-07-14 15:32:00,
2013-07-14 11:37:00,84.8,68.9,30.25,SSW,194,4.0,8.0,59,0.00,,---,0.00,VWS V13.01,2013-07-14 15:37:00,
2013-07-14 11:42:00,85.1,68.2,30.25,South,176,3.0,11.0,57,0.00,,---,0.00,VWS V13.01,2013-07-14 15:42:00,
2013-07-14 11:47:00,85.0,68.1,30.25,SSW,207,5.0,11.0,57,0.00,,---,0.00,VWS V13.01,2013-07-14 15:47:00,
2013-07-14 11:52:00,85.0,69.1,30.25,SW,215,6.0,11.0,59,0.00,,---,0.00,VWS V13.01,2013-07-14 15:52:00,
2013-07-14 11:57:00,85.1,69.2,30.25,West,279,2.0,11.0,59,0.00,,---,0.00,VWS V13.01,2013-07-14 15:57:00,
2013-07-14 12:02:00,85.1,68.7,30.25,South,186,3.0,5.0,58,0.00,,---,0.00,VWS V13.01,2013-07-14 16:02:00,
2013-07-14 12:07:00,85.2,70.2,30.25,SE,146,3.0,8.0,61,0.00,,---,0.00,VWS V13.01,2013-07-14 16:07:00,
2013-07-14 12:12:00,85.6,68.1,30.25,SE,141,6.0,8.0,56,0.00,,---,0.00,VWS V13.01,2013-07-14 16:12:00,
2013-07-14 12:17:00,85.9,69.4,30.25,SSE,159,3.0,9.0,58,0.00,,---,0.00,VWS V13.01,2013-07-14 16:17:00,
2013-07-14 12:22:00,86.2,69.2,30.25,South,187,5.0,9.0,57,0.00,,---,0.00,VWS V13.01,2013-07-14 16:22:00,
2013-07-14 12:27:00,86.5,68.4,30.25,SSW,202,7.0,10.0,55,0.00,,---,0.00,VWS V13.01,2013-07-14 16:27:00,
2013-07-14 12:32:00,86.5,68.4,30.24,SSW,194,7.0,9.0,55,0.00,,---,0.00,VWS V13.01,2013-07-14 16:32:00,
2013-07-14 12:37:00,86.6,69.1,30.24,SSW,200,5.0,9.0,56,0.00,,---,0.00,VWS V13.01,2013-07-14 16:37:00,
2013-07-14 12:42:00,86.8,69.8,30.24,SE,141,5.0,10.0,57,0.00,,---,0.00,VWS V13.01,2013-07-14 16:42:00,
2013-07-14 12:47:00,87.0,68.4,30.24,South,190,4.0,10.0,54,0.00,,---,0.00,VWS V13.01,2013-07-14 16:47:00,
2013-07-14 12:52:00,86.9,67.7,30.24,SSE,163,3.0,11.0,53,0.00,,---,0.00,VWS V13.01,2013-07-14 16:52:00,
2013-07-14 12:57:00,86.8,69.2,30.24,SSW,200,3.0,11.0,56,0.00,,---,0.00,VWS V13.01,2013-07-14 16:57:00,
2013-07-14 13:02:00,87.0,68.4,30.24,SSE,168,1.0,6.0,54,0.00,,---,0.00,VWS V13.01,2013-07-14 17:02:00,
2013-07-14 13:07:00,87.3,68.6,30.24,SSW,193,5.0,7.0,54,0.00,,---,0.00,VWS V13.01,2013-07-14 17:07:00,
2013-07-14 13:12:00,87.6,70.0,30.24,SE,140,3.0,7.0,56,0.00,,---,0.00,VWS V13.01,2013-07-14 17:12:00,
2013-07-14 13:17:00,88.1,68.3,30.24,ESE,117,2.0,7.0,52,0.00,,---,0.00,VWS V13.01,2013-07-14 17:17:00,
2013-07-14 13:22:00,88.4,68.6,30.23,South,175,2.0,7.0,52,0.00,,---,0.00,VWS V13.01,2013-07-14 17:22:00,
2013-07-14 13:27:00,88.5,68.1,30.23,SE,136,2.0,10.0,51,0.00,,---,0.00,VWS V13.01,2013-07-14 17:27:00,
2013-07-14 13:32:00,88.6,68.2,30.23,SW,214,2.0,8.0,51,0.00,,---,0.00,VWS V13.01,2013-07-14 17:32:00,
2013-07-14 13:37:00,88.4,69.7,30.23,SW,217,5.0,8.0,54,0.00,,---,0.00,VWS V13.01,2013-07-14 17:37:00,
2013-07-14 13:42:00,88.5,68.6,30.23,SE,130,3.0,10.0,52,0.00,,---,0.00,VWS V13.01,2013-07-14 17:42:00,
2013-07-14 13:47:00,88.7,69.9,30.23,SSE,147,5.0,10.0,54,0.00,,---,0.00,VWS V13.01,2013-07-14 17:47:00,
2013-07-14 13:52:00,88.9,69.0,30.23,SW,217,6.0,10.0,52,0.00,,---,0.00,VWS V13.01,2013-07-14 17:52:00,
2013-07-14 13:57:00,89.2,68.7,30.23,WSW,246,4.0,10.0,51,0.00,,---,0.00,VWS V13.01,2013-07-14 17:57:00,
2013-07-14 14:02:00,89.5,69.6,30.23,SSW,196,4.0,9.0,52,0.00,,---,0.00,VWS V13.01,2013-07-14 18:02:00,
2013-07-14 14:07:00,89.5,69.6,30.23,SSW,211,1.0,9.0,52,0.00,,---,0.00,VWS V13.01,2013-07-14 18:07:00,
2013-07-14 14:12:00,89.7,69.2,30.23,SSE,165,2.0,9.0,51,0.00,,---,0.00,VWS V13.01,2013-07-14 18:12:00,
2013-07-14 14:17:00,89.5,69.0,30.23,SE,132,2.0,9.0,51,0.00,,---,0.00,VWS V13.01,2013-07-14 18:17:00,
2013-07-14 14:22:00,89.1,68.6,30.22,SW,221,3.0,9.0,51,0.00,,---,0.00,VWS V13.01,2013-07-14 18:22:00,
2013-07-14 14:27:00,89.2,69.8,30.22,South,173,6.0,9.0,53,0.00,,---,0.00,VWS V13.01,2013-07-14 18:27:00,
2013-07-14 14:32:00,89.4,69.5,30.22,South,171,2.0,7.0,52,0.00,,---,0.00,VWS V13.01,2013-07-14 18:32:00,
2013-07-14 14:37:00,89.6,69.1,30.22,SE,135,0.0,7.0,51,0.00,,---,0.00,VWS V13.01,2013-07-14 18:37:00,
2013-07-14 14:42:00,89.8,69.3,30.22,SSE,162,2.0,11.0,51,0.00,,---,0.00,VWS V13.01,2013-07-14 18:42:00,
2013-07-14 14:47:00,89.8,69.3,30.22,SSE,150,3.0,11.0,51,0.00,,---,0.00,VWS V13.01,2013-07-14 18:47:00,
2013-07-14 14:52:00,90.0,70.0,30.22,SE,142,2.0,11.0,52,0.00,,---,0.00,VWS V13.01,2013-07-14 18:52:00,
2013-07-14 14:57:00,90.3,69.2,30.21,SSE,164,3.0,11.0,50,0.00,,---,0.00,VWS V13.01,2013-07-14 18:57:00,
2013-07-14 15:02:00,90.8,70.2,30.21,SSE,156,6.0,8.0,51,0.00,,---,0.00,VWS V13.01,2013-07-14 19:02:00,
2013-07-14 15:07:00,91.1,69.9,30.21,SW,228,8.0,8.0,50,0.00,,---,0.00,VWS V13.01,2013-07-14 19:07:00,
2013-07-14 15:12:00,90.6,71.1,30.21,SE,146,5.0,8.0,53,0.00,,---,0.00,VWS V13.01,2013-07-14 19:12:00,
2013-07-14 15:17:00,90.5,69.9,30.21,SSW,199,3.0,8.0,51,0.00,,---,0.00,VWS V13.01,2013-07-14 19:17:00,
2013-07-14 15:22:00,90.7,69.5,30.21,SSW,192,4.0,8.0,50,0.00,,---,0.00,VWS V13.01,2013-07-14 19:22:00,
2013-07-14 15:27:00,91.2,70.6,30.21,SSE,164,1.0,8.0,51,0.00,,---,0.00,VWS V13.01,2013-07-14 19:27:00,
2013-07-14 15:32:00,91.6,71.5,30.21,SW,216,7.0,7.0,52,0.00,,---,0.00,VWS V13.01,2013-07-14 19:32:00,
2013-07-14 15:37:00,91.7,69.8,30.21,South,170,6.0,8.0,49,0.00,,---,0.00,VWS V13.01,2013-07-14 19:37:00,
2013-07-14 15:42:00,91.4,68.3,30.20,South,174,4.0,13.0,47,0.00,,---,0.00,VWS V13.01,2013-07-14 19:42:00,
2013-07-14 15:47:00,91.2,68.8,30.20,West,265,4.0,13.0,48,0.00,,---,0.00,VWS V13.01,2013-07-14 19:47:00,
2013-07-14 15:52:00,91.5,70.2,30.20,South,188,2.0,13.0,50,0.00,,---,0.00,VWS V13.01,2013-07-14 19:52:00,
2013-07-14 15:57:00,91.8,70.5,30.20,SSE,153,4.0,13.0,50,0.00,,---,0.00,VWS V13.01,2013-07-14 19:57:00,
2013-07-14 16:02:00,91.7,69.8,30.20,South,174,5.0,7.0,49,0.00,,---,0.00,VWS V13.01,2013-07-14 20:02:00,
2013-07-14 16:07:00,91.4,70.7,30.20,East,99,2.0,7.0,51,0.00,,---,0.00,VWS V13.01,2013-07-14 20:07:00,
2013-07-14 16:12:00,91.3,70.1,30.20,SSE,161,4.0,9.0,50,0.00,,---,0.00,VWS V13.01,2013-07-14 20:12:00,
2013-07-14 16:17:00,91.5,70.8,30.20,SE,146,1.0,9.0,51,0.00,,---,0.00,VWS V13.01,2013-07-14 20:17:00,
2013-07-14 16:22:00,91.6,70.3,30.20,SSE,161,2.0,9.0,50,0.00,,---,0.00,VWS V13.01,2013-07-14 20:22:00,
2013-07-14 16:27:00,91.8,69.3,30.20,SE,142,2.0,9.0,48,0.00,,---,0.00,VWS V13.01,2013-07-14 20:27:00,
2013-07-14 16:32:00,91.4,69.0,30.20,SE,126,2.0,5.0,48,0.00,,---,0.00,VWS V13.01,2013-07-14 20:32:00,
2013-07-14 16:37:00,91.0,69.8,30.20,SE,146,3.0,5.0,50,0.00,,---,0.00,VWS V13.01,2013-07-14 20:37:00,
2013-07-14 16:42:00,90.9,71.4,30.20,East,98,2.0,6.0,53,0.00,,---,0.00,VWS V13.01,2013-07-14 20:42:00,
2013-07-14 16:47:00,91.1,69.9,30.20,ESE,121,0.0,6.0,50,0.00,,---,0.00,VWS V13.01,2013-07-14 20:47:00,
2013-07-14 16:52:00,91.2,70.6,30.20,East,92,3.0,7.0,51,0.00,,---,0.00,VWS V13.01,2013-07-14 20:52:00,
2013-07-14 16:57:00,90.7,70.7,30.20,East,86,5.0,7.0,52,0.00,,---,0.00,VWS V13.01,2013-07-14 20:57:00,
2013-07-14 17:02:00,89.7,71.4,30.20,SSE,152,1.0,2.0,55,0.00,,---,0.00,VWS V13.01,2013-07-14 21:02:00,
2013-07-14 17:07:00,89.2,71.5,30.20,NE,38,2.0,6.0,56,0.00,,---,0.00,VWS V13.01,2013-07-14 21:07:00,
2013-07-14 17:12:00,89.2,72.0,30.19,ENE,74,2.0,6.0,57,0.00,,---,0.00,VWS V13.01,2013-07-14 21:12:00,
2013-07-14 17:17:00,89.3,72.1,30.19,SSE,162,1.0,6.0,57,0.00,,---,0.00,VWS V13.01,2013-07-14 21:17:00,
2013-07-14 17:22:00,89.2,70.4,30.19,South,169,2.0,10.0,54,0.00,,---,0.00,VWS V13.01,2013-07-14 21:22:00,
2013-07-14 17:27:00,89.0,70.8,30.19,SE,144,2.0,10.0,55,0.00,,---,0.00,VWS V13.01,2013-07-14 21:27:00,
2013-07-14 17:32:00,89.0,70.8,30.19,SE,136,3.0,5.0,55,0.00,,---,0.00,VWS V13.01,2013-07-14 21:32:00,
2013-07-14 17:37:00,89.1,70.8,30.19,ESE,114,4.0,7.0,55,0.00,,---,0.00,VWS V13.01,2013-07-14 21:37:00,
2013-07-14 17:42:00,88.9,70.1,30.19,SSE,155,1.0,7.0,54,0.00,,---,0.00,VWS V13.01,2013-07-14 21:42:00,
2013-07-14 17:47:00,89.1,70.8,30.20,SSE,158,2.0,7.0,55,0.00,,---,0.00,VWS V13.01,2013-07-14 21:47:00,
2013-07-14 17:52:00,89.4,71.1,30.20,ENE,73,2.0,7.0,55,0.00,,---,0.00,VWS V13.01,2013-07-14 21:52:00,
2013-07-14 17:57:00,89.5,71.2,30.20,East,95,5.0,7.0,55,0.00,,---,0.00,VWS V13.01,2013-07-14 21:57:00,
2013-07-14 18:02:00,89.6,72.4,30.20,SE,128,0.0,3.0,57,0.00,,---,0.00,VWS V13.01,2013-07-14 22:02:00,
2013-07-14 18:07:00,89.5,71.2,30.20,SE,135,0.0,8.0,55,0.00,,---,0.00,VWS V13.01,2013-07-14 22:07:00,
2013-07-14 18:12:00,89.1,70.8,30.20,SSE,156,5.0,8.0,55,0.00,,---,0.00,VWS V13.01,2013-07-14 22:12:00,
2013-07-14 18:17:00,89.2,72.0,30.20,ESE,120,0.0,8.0,57,0.00,,---,0.00,VWS V13.01,2013-07-14 22:17:00,
2013-07-14 18:22:00,89.1,70.8,30.20,ENE,67,3.0,8.0,55,0.00,,---,0.00,VWS V13.01,2013-07-14 22:22:00,
2013-07-14 18:27:00,88.6,70.4,30.20,SE,128,1.0,8.0,55,0.00,,---,0.00,VWS V13.01,2013-07-14 22:27:00,
2013-07-14 18:32:00,87.9,69.7,30.20,South,184,4.0,6.0,55,0.00,,---,0.00,VWS V13.01,2013-07-14 22:32:00,
2013-07-14 18:37:00,87.4,70.8,30.20,SE,142,3.0,6.0,58,0.00,,---,0.00,VWS V13.01,2013-07-14 22:37:00,
2013-07-14 18:42:00,87.0,70.4,30.20,SSE,159,2.0,6.0,58,0.00,,---,0.00,VWS V13.01,2013-07-14 22:42:00,
2013-07-14 18:47:00,86.8,70.3,30.20,SE,145,3.0,6.0,58,0.00,,---,0.00,VWS V13.01,2013-07-14 22:47:00,
2013-07-14 18:52:00,86.7,70.2,30.20,ESE,107,0.0,6.0,58,0.00,,---,0.00,VWS V13.01,2013-07-14 22:52:00,
2013-07-14 18:57:00,86.5,70.5,30.20,ESE,107,1.0,6.0,59,0.00,,---,0.00,VWS V13.01,2013-07-14 22:57:00,
2013-07-14 19:02:00,86.5,71.0,30.20,SSE,148,0.0,2.0,60,0.00,,---,0.00,VWS V13.01,2013-07-14 23:02:00,
2013-07-14 19:07:00,86.3,70.3,30.20,ESE,107,0.0,2.0,59,0.00,,---,0.00,VWS V13.01,2013-07-14 23:07:00,
2013-07-14 19:12:00,86.3,70.3,30.20,ESE,104,1.0,5.0,59,0.00,,---,0.00,VWS V13.01,2013-07-14 23:12:00,
2013-07-14 19:17:00,85.9,69.9,30.20,SE,133,0.0,5.0,59,0.00,,---,0.00,VWS V13.01,2013-07-14 23:17:00,
2013-07-14 19:22:00,85.8,70.8,30.20,SE,133,0.0,5.0,61,0.00,,---,0.00,VWS V13.01,2013-07-14 23:22:00,
2013-07-14 19:27:00,85.8,70.3,30.20,SE,144,3.0,5.0,60,0.00,,---,0.00,VWS V13.01,2013-07-14 23:27:00,
2013-07-14 19:32:00,85.7,70.2,30.20,SE,144,0.0,4.0,60,0.00,,---,0.00,VWS V13.01,2013-07-14 23:32:00,
2013-07-14 19:37:00,85.5,70.0,30.20,East,92,5.0,5.0,60,0.00,,---,0.00,VWS V13.01,2013-07-14 23:37:00,
2013-07-14 19:42:00,85.2,70.2,30.20,ENE,67,2.0,5.0,61,0.00,,---,0.00,VWS V13.01,2013-07-14 23:42:00,
2013-07-14 19:47:00,84.7,69.8,30.20,ESE,102,0.0,5.0,61,0.00,,---,0.00,VWS V13.01,2013-07-14 23:47:00,
2013-07-14 19:52:00,84.3,69.9,30.20,SSE,153,3.0,5.0,62,0.00,,---,0.00,VWS V13.01,2013-07-14 23:52:00,
2013-07-14 19:57:00,83.9,69.5,30.20,SE,144,1.0,7.0,62,0.00,,---,0.00,VWS V13.01,2013-07-14 23:57:00,
2013-07-14 20:02:00,83.6,69.7,30.20,SE,134,0.0,3.0,63,0.00,,---,0.00,VWS V13.01,2013-07-15 00:02:00,
2013-07-14 20:07:00,83.3,69.4,30.20,ESE,113,1.0,3.0,63,0.00,,---,0.00,VWS V13.01,2013-07-15 00:07:00,
2013-07-14 20:12:00,83.0,69.6,30.20,South,172,0.0,4.0,64,0.00,,---,0.00,VWS V13.01,2013-07-15 00:12:00,
2013-07-14 20:17:00,82.7,69.8,30.21,SE,135,1.0,4.0,65,0.00,,---,0.00,VWS V13.01,2013-07-15 00:17:00,
2013-07-14 20:22:00,82.4,69.5,30.21,SSE,159,1.0,4.0,65,0.00,,---,0.00,VWS V13.01,2013-07-15 00:22:00,
2013-07-14 20:27:00,82.1,69.2,30.21,SE,126,0.0,4.0,65,0.00,,---,0.00,VWS V13.01,2013-07-15 00:27:00,
2013-07-14 20:32:00,81.8,68.9,30.21,SE,144,0.0,2.0,65,0.00,,---,0.00,VWS V13.01,2013-07-15 00:32:00,
2013-07-14 20:37:00,81.6,69.2,30.20,SE,144,0.0,2.0,66,0.00,,---,0.00,VWS V13.01,2013-07-15 00:37:00,
2013-07-14 20:42:00,81.4,69.0,30.21,SSE,157,1.0,3.0,66,0.00,,---,0.00,VWS V13.01,2013-07-15 00:42:00,
2013-07-14 20:47:00,81.1,69.1,30.21,SSE,167,0.0,3.0,67,0.00,,---,0.00,VWS V13.01,2013-07-15 00:47:00,
2013-07-14 20:52:00,80.9,68.9,30.21,South,169,1.0,3.0,67,0.00,,---,0.00,VWS V13.01,2013-07-15 00:52:00,
2013-07-14 20:57:00,80.7,68.7,30.21,SE,131,0.0,3.0,67,0.00,,---,0.00,VWS V13.01,2013-07-15 00:57:00,
2013-07-14 21:02:00,80.5,68.5,30.21,SE,133,0.0,1.0,67,0.00,,---,0.00,VWS V13.01,2013-07-15 01:02:00,
2013-07-14 21:07:00,80.2,68.7,30.21,South,179,0.0,1.0,68,0.00,,---,0.00,VWS V13.01,2013-07-15 01:07:00,
2013-07-14 21:12:00,79.9,68.4,30.21,South,179,0.0,1.0,68,0.00,,---,0.00,VWS V13.01,2013-07-15 01:12:00,
2013-07-14 21:17:00,79.6,68.1,30.22,South,178,1.0,2.0,68,0.00,,---,0.00,VWS V13.01,2013-07-15 01:17:00,
2013-07-14 21:22:00,79.4,68.3,30.22,South,179,0.0,2.0,69,0.00,,---,0.00,VWS V13.01,2013-07-15 01:22:00,
2013-07-14 21:27:00,79.2,68.6,30.21,South,180,0.0,2.0,70,0.00,,---,0.00,VWS V13.01,2013-07-15 01:27:00,
2013-07-14 21:28:00,79.2,68.6,30.21,South,180,0.0,2.0,70,0.00,,---,0.00,VWS V13.01,2013-07-15 01:28:00,
2013-07-14 21:33:00,79.1,68.5,30.22,South,180,0.0,1.0,70,0.00,,---,0.00,VWS V13.01,2013-07-15 01:33:00,
2013-07-14 21:38:00,78.9,68.7,30.22,SW,234,0.0,1.0,71,0.00,,---,0.00,VWS V13.01,2013-07-15 01:38:00,
2013-07-14 21:43:00,78.7,68.1,30.22,SW,234,0.0,1.0,70,0.00,,---,0.00,VWS V13.01,2013-07-15 01:43:00,
2013-07-14 21:48:00,78.4,68.2,30.22,SW,234,0.0,1.0,71,0.00,,---,0.00,VWS V13.01,2013-07-15 01:48:00,
2013-07-14 21:53:00,78.2,67.6,30.22,SSW,203,3.0,4.0,70,0.00,,---,0.00,VWS V13.01,2013-07-15 01:53:00,
2013-07-14 21:58:00,78.4,67.8,30.22,SW,217,2.0,4.0,70,0.00,,---,0.00,VWS V13.01,2013-07-15 01:58:00,
2013-07-14 22:03:00,78.6,67.6,30.22,SSE,161,2.0,5.0,69,0.00,,---,0.00,VWS V13.01,2013-07-15 02:03:00,
2013-07-14 22:08:00,78.8,67.8,30.23,SSE,161,0.0,5.0,69,0.00,,---,0.00,VWS V13.01,2013-07-15 02:08:00,
2013-07-14 22:13:00,78.9,67.9,30.23,SSE,161,0.0,5.0,69,0.00,,---,0.00,VWS V13.01,2013-07-15 02:13:00,
2013-07-14 22:18:00,78.8,67.4,30.23,SE,146,3.0,5.0,68,0.00,,---,0.00,VWS V13.01,2013-07-15 02:18:00,
2013-07-14 22:23:00,78.9,67.4,30.23,SSW,200,3.0,5.0,68,0.00,,---,0.00,VWS V13.01,2013-07-15 02:23:00,
2013-07-14 22:28:00,79.1,67.6,30.23,SSE,163,1.0,5.0,68,0.00,,---,0.00,VWS V13.01,2013-07-15 02:28:00,
2013-07-14 22:33:00,79.1,67.6,30.23,SSW,209,4.0,6.0,68,0.00,,---,0.00,VWS V13.01,2013-07-15 02:33:00,
2013-07-14 22:38:00,79.1,67.6,30.23,SSW,197,2.0,6.0,68,0.00,,---,0.00,VWS V13.01,2013-07-15 02:38:00,
2013-07-14 22:43:00,79.1,67.2,30.23,SE,142,0.0,6.0,67,0.00,,---,0.00,VWS V13.01,2013-07-15 02:43:00,
2013-07-14 22:48:00,79.1,67.6,30.23,SSE,162,0.0,6.0,68,0.00,,---,0.00,VWS V13.01,2013-07-15 02:48:00,
2013-07-14 22:53:00,78.8,67.8,30.23,ENE,66,1.0,6.0,69,0.00,,---,0.00,VWS V13.01,2013-07-15 02:53:00,
2013-07-14 22:58:00,78.5,67.9,30.23,WNW,292,0.0,6.0,70,0.00,,---,0.00,VWS V13.01,2013-07-15 02:58:00,
2013-07-14 23:03:00,78.1,67.5,30.23,WNW,292,0.0,1.0,70,0.00,,---,0.00,VWS V13.01,2013-07-15 03:03:00,
2013-07-14 23:08:00,77.8,67.7,30.23,WNW,292,0.0,1.0,71,0.00,,---,0.00,VWS V13.01,2013-07-15 03:08:00,
2013-07-14 23:13:00,77.6,67.5,30.24,WNW,292,0.0,1.0,71,0.00,,---,0.00,VWS V13.01,2013-07-15 03:13:00,
2013-07-14 23:18:00,77.4,67.7,30.23,West,271,0.0,2.0,72,0.00,,---,0.00,VWS V13.01,2013-07-15 03:18:00,
2013-07-14 23:23:00,77.1,67.4,30.24,West,271,0.0,2.0,72,0.00,,---,0.00,VWS V13.01,2013-07-15 03:23:00,
2013-07-14 23:28:00,76.9,67.6,30.23,West,271,0.0,2.0,73,0.00,,---,0.00,VWS V13.01,2013-07-15 03:28:00,
2013-07-14 23:33:00,76.6,67.7,30.23,West,271,0.0,1.0,74,0.00,,---,0.00,VWS V13.01,2013-07-15 03:33:00,
2013-07-14 23:38:00,76.4,67.5,30.23,West,271,0.0,1.0,74,0.00,,---,0.00,VWS V13.01,2013-07-15 03:38:00,
2013-07-14 23:43:00,76.1,67.6,30.24,West,271,0.0,1.0,75,0.00,,---,0.00,VWS V13.01,2013-07-15 03:43:00,
2013-07-14 23:48:00,75.9,67.4,30.24,West,271,0.0,1.0,75,0.00,,---,0.00,VWS V13.01,2013-07-15 03:48:00,
2013-07-14 23:53:00,75.7,67.2,30.23,West,271,0.0,1.0,75,0.00,,---,0.00,VWS V13.01,2013-07-15 03:53:00,
2013-07-14 23:58:00,75.6,67.1,30.23,West,270,0.0,2.0,75,0.00,,---,0.00,VWS V13.01,2013-07-15 03:58:00,